SR8NGO-1 Weather Reports


Display with metric or nautical units.
time (UTC)temp
F
wind
direction
speed
MPH
gust
MPH
rain 1hr
in
rain 24hr
in
rain mn
in
humidity
%
barometer
mb
20260508054851 50 246 8.0 50.0 5.08 0.81 0.00 92 1004.2
20260508054451 50 269 7.0 50.0 5.04 0.81 0.00 92 1004.1
20260508054051 50 318 4.0 50.0 5.04 0.82 0.00 92 1004.0
20260508053651 50 279 6.0 50.0 5.04 0.81 0.00 92 1003.9
20260508053251 50 318 5.0 50.0 5.04 0.81 0.00 92 1003.9
20260508052852 50 290 4.0 50.0 5.04 0.81 0.00 92 1003.8
20260508052451 50 184 9.0 50.0 5.04 0.82 0.00 92 1003.8
20260508052051 50 280 5.0 50.0 5.00 0.81 0.00 92 1003.7
20260508051652 50 337 9.0 50.0 5.04 0.81 0.00 92 1003.6
20260508051251 50 325 6.0 50.0 5.00 0.81 0.00 92 1003.5
20260508050852 50 280 9.0 50.0 5.04 0.81 0.00 92 1003.5
20260508050051 50 348 9.0 50.0 5.00 0.81 0.00 92 1003.4
20260508045651 50 325 8.0 50.0 5.04 0.81 0.00 92 1003.5
20260508045252 50 318 10.0 50.0 5.04 0.81 0.00 91 1003.5
20260508044851 50 307 13.0 50.0 5.04 0.81 0.00 92 1003.5
20260508044051 50 320 8.0 50.0 4.96 0.81 0.00 91 1003.5
20260508043651 50 268 8.0 50.0 4.96 0.82 0.00 92 1003.5
20260508043252 50 335 6.0 50.0 4.92 0.82 0.00 92 1003.5
20260508042851 50 280 6.0 50.0 4.92 0.82 0.00 92 1003.5
20260508042451 50 301 7.0 50.0 4.92 0.82 0.00 91 1003.4
20260508042051 50 346 7.0 50.0 4.92 0.82 0.00 92 1003.4
20260508041651 50 331 6.0 50.0 4.88 0.82 0.00 91 1003.4
20260508041251 50 296 9.0 50.0 4.88 0.82 0.00 91 1003.4
20260508040851 50 353 7.0 50.0 4.92 0.82 0.00 91 1003.3
20260508040451 50 275 3.0 50.0 4.92 0.82 0.00 91 1003.3
20260508040051 50 303 4.0 50.0 4.88 0.82 0.00 91 1003.3
20260508035651 50 262 8.0 50.0 4.88 0.82 0.00 91 1003.2
20260508035252 50 296 8.0 50.0 4.88 0.82 0.00 91 1003.2
20260508034851 50 308 8.0 50.0 4.88 0.82 0.00 91 1003.2
20260508034451 50 307 9.0 50.0 4.88 0.82 0.00 91 1003.2
20260508034051 50 346 8.0 50.0 4.88 0.82 0.00 91 1003.2
20260508033651 50 329 11.0 50.0 4.88 0.82 0.00 91 1003.2
20260508033251 50 331 3.0 50.0 4.88 0.83 0.00 91 1003.2
20260508032851 50 342 9.0 50.0 4.88 0.83 0.00 91 1003.2
20260508032451 50 324 9.0 50.0 4.88 0.83 0.00 91 1003.2
20260508032051 50 279 9.0 50.0 4.88 0.83 0.00 91 1003.2
20260508031651 50 279 4.0 50.0 4.88 0.83 0.00 91 1003.1
20260508031251 52 320 3.0 50.0 4.88 0.83 0.00 91 1003.0
20260508030851 52 329 6.0 50.0 4.88 0.84 0.00 91 1003.0
20260508030451 52 341 9.0 50.0 4.88 0.84 0.00 91 1003.0
20260508030051 52 296 6.0 50.0 4.88 0.84 0.00 91 1003.0
20260508025651 52 308 7.0 50.0 4.88 0.84 0.00 91 1003.0
20260508025251 52 331 5.0 50.0 4.88 0.84 0.00 91 1003.0
20260508024851 52 296 6.0 50.0 4.88 0.84 0.00 91 1002.9
20260508024451 52 313 4.0 50.0 4.88 0.84 0.00 91 1002.9
20260508024051 52 284 10.0 50.0 4.88 0.84 0.00 91 1002.9
20260508023651 52 263 9.0 50.0 4.88 0.84 0.00 91 1002.9
20260508023251 52 290 7.0 50.0 4.88 0.84 0.00 91 1002.9
20260508022851 52 303 7.0 50.0 4.88 0.85 0.00 91 1002.8
20260508022451 52 290 3.0 50.0 4.88 0.85 0.00 91 1002.8
20260508022051 52 329 7.0 50.0 4.88 0.85 0.00 91 1002.8
20260508021651 52 342 6.0 50.0 4.88 0.85 0.00 91 1002.8
20260508021251 52 359 10.0 50.0 4.88 0.85 0.00 91 1002.8
20260508020851 52 290 13.0 50.0 4.88 0.85 0.00 91 1002.8
20260508020451 52 290 7.0 50.0 4.88 0.85 0.00 91 1002.8
20260508020051 52 303 11.0 50.0 4.88 0.86 0.00 91 1002.8
20260508015651 52 337 8.0 50.0 4.88 0.86 0.00 91 1002.7
20260508015252 52 346 7.0 50.0 4.88 0.87 0.00 91 1002.7
20260508014851 52 307 8.0 50.0 4.88 0.87 0.00 91 1002.7
20260508014451 52 279 6.0 50.0 4.88 0.87 0.00 91 1002.8
20260508014051 52 286 7.0 50.0 4.88 0.87 0.00 90 1002.7
20260508013651 54 296 9.0 50.0 4.88 0.87 0.00 90 1002.7
20260508013251 54 341 5.0 50.0 4.88 0.88 0.00 91 1002.7
20260508012851 54 273 9.0 50.0 4.88 0.88 0.00 91 1002.7
20260508012451 54 296 6.0 50.0 4.88 0.88 0.00 90 1002.7
20260508012052 54 297 5.0 50.0 4.88 0.88 0.00 91 1002.7
20260508011651 54 329 5.0 50.0 4.88 0.89 0.00 91 1002.7
20260508011251 54 325 6.0 50.0 4.88 0.89 0.00 90 1002.7
20260508010851 54 348 7.0 50.0 4.88 0.89 0.00 90 1002.6
20260508010451 54 320 5.0 50.0 4.92 0.89 0.00 90 1002.6
20260508010051 54 279 5.0 50.0 4.92 0.89 0.00 90 1002.6
20260508005651 54 337 4.0 50.0 4.92 0.89 0.00 90 1002.6
20260508005251 54 318 3.0 50.0 4.92 0.89 0.00 90 1002.6
20260508004851 54 331 3.0 50.0 4.92 0.89 0.00 90 1002.6
20260508004451 54 335 6.0 50.0 4.92 0.89 0.00 90 1002.6
20260508004051 54 320 3.0 50.0 4.92 0.89 0.00 90 1002.6
20260508003651 54 303 5.0 50.0 4.92 0.89 0.00 90 1002.6
20260508003251 54 301 7.0 50.0 4.92 0.89 0.00 90 1002.6
20260508002851 54 307 4.0 50.0 4.92 0.89 0.00 91 1002.7
20260508002451 54 308 6.0 50.0 4.92 0.90 0.00 90 1002.7
20260508002051 54 320 6.0 50.0 4.92 0.90 0.00 90 1002.7
20260508001651 54 301 6.0 50.0 4.92 0.90 0.00 90 1002.7
20260508001251 54 290 6.0 50.0 4.92 0.90 0.00 90 1002.6
20260508000852 54 291 5.0 50.0 4.92 0.90 0.00 90 1002.6
20260508000451 54 325 4.0 50.0 4.92 0.90 0.00 90 1002.6
20260508000051 54 303 4.0 50.0 4.92 0.90 0.00 90 1002.6
20260507235651 54 279 3.0 50.0 4.92 0.91 0.00 90 1002.6
20260507235251 54 308 3.0 50.0 4.92 0.91 0.00 90 1002.6
20260507234851 54 290 6.0 50.0 4.92 0.91 0.00 90 1002.6
20260507234451 54 263 6.0 50.0 4.92 0.91 0.00 90 1002.6
20260507234051 54 290 4.0 50.0 4.92 0.91 0.00 90 1002.6
20260507233651 54 303 7.0 50.0 4.92 0.91 0.00 90 1002.7
20260507233251 55 291 4.0 50.0 4.92 0.92 0.00 90 1002.7
20260507232851 55 329 4.0 50.0 4.92 0.92 0.00 89 1002.7
20260507232451 55 245 13.0 50.0 4.92 0.92 0.00 90 1002.8
20260507232051 55 275 6.0 50.0 4.92 0.92 0.00 89 1002.8
20260507231651 55 286 7.0 50.0 4.92 0.93 0.00 89 1002.8
20260507231251 55 314 2.0 50.0 4.92 0.93 0.00 89 1002.8
20260507230851 55 286 3.0 50.0 4.92 0.93 0.00 89 1002.8
20260507230451 55 256 4.0 50.0 4.92 0.93 0.00 89 1002.8
20260507230051 55 291 4.0 50.0 4.92 0.93 0.00 89 1002.8
20260507225651 55 307 5.0 50.0 4.92 0.93 0.00 89 1002.8
20260507225251 55 297 4.0 50.0 4.92 0.94 0.00 89 1002.8
20260507224851 55 320 3.0 50.0 4.92 0.94 0.00 89 1002.8
20260507224451 55 307 6.0 50.0 4.92 0.94 0.00 89 1002.8
20260507224051 55 303 3.0 50.0 4.92 0.94 0.00 89 1002.8
20260507223651 55 325 3.0 50.0 4.92 0.94 0.00 89 1002.7
20260507223251 55 346 3.0 50.0 4.92 0.94 0.00 89 1002.7
20260507222851 55 346 6.0 50.0 4.92 0.94 0.00 89 1002.7
20260507222452 55 331 4.0 50.0 4.92 0.94 0.00 89 1002.7
20260507222051 55 26 3.0 50.0 4.92 0.94 0.00 89 1002.7
20260507221651 55 342 5.0 50.0 4.92 0.95 0.00 89 1002.6
20260507221251 55 320 5.0 50.0 4.92 0.95 0.00 89 1002.6
20260507220851 55 324 4.0 50.0 4.92 0.95 0.00 88 1002.7
20260507220451 55 320 5.0 50.0 4.92 0.95 0.00 89 1002.7
20260507220051 55 314 4.0 50.0 4.92 0.95 0.00 89 1002.7
20260507215651 57 325 4.0 50.0 4.92 0.95 0.00 89 1002.7
20260507215251 57 279 3.0 50.0 4.92 0.95 0.00 88 1002.7
20260507214851 57 290 6.0 50.0 4.92 0.95 0.00 88 1002.6
20260507214451 57 320 2.0 50.0 4.92 0.95 0.00 88 1002.5
20260507214051 57 286 6.0 50.0 4.92 0.95 0.00 88 1002.5
20260507213651 57 307 7.0 50.0 4.92 0.95 0.00 88 1002.5
20260507213251 57 280 6.0 50.0 4.92 0.95 0.00 88 1002.5
20260507212851 57 307 5.0 50.0 4.92 0.95 0.00 88 1002.5
20260507212451 57 291 6.0 50.0 4.92 0.95 0.00 88 1002.5
20260507212051 57 286 3.0 50.0 4.92 0.95 0.00 88 1002.5
20260507211651 57 275 2.0 50.0 4.92 0.95 0.00 88 1002.4
20260507211251 57 303 2.0 50.0 4.92 0.95 0.00 88 1002.4
20260507210851 57 273 3.0 50.0 4.96 0.95 0.00 88 1002.4
20260507210451 55 279 4.0 50.0 4.96 0.95 0.00 88 1002.4
20260507210051 55 280 1.0 50.0 4.96 0.94 0.00 88 1002.4
20260507205651 55 273 2.0 50.0 4.96 0.94 0.00 88 1002.4
20260507205251 55 296 4.0 50.0 4.96 0.94 0.00 87 1002.4
20260507204851 55 313 2.0 50.0 4.96 0.93 0.00 87 1002.3
20260507204451 55 297 4.0 50.0 4.96 0.93 0.00 87 1002.3
20260507204051 55 296 5.0 50.0 4.96 0.93 0.00 87 1002.3
20260507203651 55 307 3.0 50.0 4.96 0.93 0.00 87 1002.2
20260507203251 55 335 4.0 50.0 4.96 0.93 0.00 87 1002.3
20260507202851 55 268 1.0 50.0 4.96 0.93 0.00 87 1002.3
20260507202451 55 335 4.0 50.0 4.96 0.93 0.00 87 1002.3
20260507202051 55 303 2.0 50.0 4.96 0.93 0.00 87 1002.3
20260507201651 55 301 6.0 50.0 4.96 0.93 0.00 87 1002.3
20260507200451 55 291 6.0 50.0 4.96 0.93 0.00 86 1002.3
20260507200051 55 329 4.0 50.0 4.96 0.93 0.00 86 1002.3
20260507195651 55 286 10.0 50.0 4.96 0.94 0.00 86 1002.3
20260507195251 55 307 4.0 50.0 4.96 0.94 0.00 86 1002.3
20260507194851 55 200 4.0 50.0 4.96 0.95 0.00 86 1002.3
20260507194451 57 346 3.0 50.0 4.96 0.95 0.00 86 1002.3
20260507194051 57 256 4.0 50.0 4.96 0.95 0.00 85 1002.3
20260507193651 55 303 9.0 50.0 4.96 0.95 0.00 85 1002.2
20260507193251 55 234 9.0 50.0 4.96 0.95 0.00 85 1002.2
20260507192851 55 246 6.0 50.0 4.96 0.94 0.00 85 1002.2
20260507192451 55 230 15.0 50.0 4.96 0.94 0.00 85 1002.3
20260507191651 57 218 20.0 50.0 4.96 0.96 0.00 84 1002.2
20260507191251 57 218 13.0 50.0 4.96 0.97 0.00 84 1002.2
20260507190851 57 222 7.0 50.0 4.96 0.98 0.00 84 1002.2
20260507190451 57 201 8.0 50.0 4.96 0.98 0.00 84 1002.1
20260507190051 57 189 4.0 50.0 4.96 0.98 0.00 84 1002.0
20260507185651 57 190 5.0 50.0 4.96 0.98 0.00 83 1002.0
20260507185356 57 213 7.0 50.0 4.96 0.98 0.00 83 1001.9
20260507185251 57 213 7.0 50.0 4.96 0.98 0.00 83 1001.9
20260507184851 57 256 4.0 50.0 4.96 0.97 0.00 83 1001.8
20260507184451 57 324 4.0 50.0 4.96 0.98 0.00 83 1001.7
20260507184051 57 329 4.0 50.0 4.96 0.98 0.00 82 1001.6
20260507183651 57 307 3.0 50.0 4.96 0.98 0.00 82 1001.6
20260507183251 57 331 3.0 50.0 4.96 0.98 0.00 82 1001.5
20260507182851 57 320 5.0 50.0 4.96 0.98 0.00 81 1001.5
20260507182051 57 335 2.0 50.0 4.96 0.98 0.00 80 1001.4
20260507181651 57 296 2.0 50.0 4.96 0.98 0.00 80 1001.4
20260507181251 57 297 0.0 50.0 4.96 0.98 0.00 80 1001.4
20260507180851 57 296 1.0 50.0 4.96 0.98 0.00 79 1001.3
20260507180051 57 297 4.0 50.0 4.96 0.98 0.00 78 1001.3
20260507175651 57 337 4.0 50.0 4.96 0.98 0.00 78 1001.3
20260507175251 57 313 2.0 50.0 4.96 0.98 0.00 78 1001.4
20260507174851 57 190 2.0 50.0 4.96 0.98 0.00 77 1001.4
20260507174451 57 200 2.0 50.0 4.96 0.98 0.00 77 1001.3
20260507173651 57 246 4.0 50.0 4.96 0.98 0.00 76 1001.3
20260507173251 57 218 2.0 50.0 4.96 0.98 0.00 76 1001.3
20260507172851 57 222 5.0 50.0 4.96 0.98 0.00 75 1001.3
20260507172451 57 228 5.0 50.0 4.96 0.98 0.00 74 1001.3
20260507172051 55 200 7.0 50.0 4.96 0.95 0.00 73 1001.2
20260507171651 55 168 9.0 50.0 4.96 0.93 0.00 71 1001.1
20260507171251 57 127 13.0 50.0 4.96 0.99 0.00 70 1001.0
20260507170851 59 172 11.0 50.0 4.96 1.00 0.00 69 1001.1
20260507170451 59 200 20.0 50.0 4.96 0.99 0.00 67 1001.1
20260507170051 59 173 10.0 50.0 4.96 1.01 0.00 65 1000.9
20260507165651 59 213 9.0 50.0 4.96 1.02 0.00 64 1000.7
20260507165251 59 268 4.0 50.0 4.96 1.02 0.00 63 1000.5
20260507164851 59 275 2.0 50.0 5.00 1.03 0.00 62 1000.4
20260507164451 59 301 2.0 50.0 5.00 1.03 0.00 62 1000.3
20260507164051 63 262 4.0 50.0 5.00 1.05 0.00 62 1000.3
20260507163651 63 279 6.0 50.0 5.00 1.08 0.00 61 1000.1
20260507163251 63 256 5.0 50.0 5.04 1.09 0.00 61 1000.1
20260507162851 63 297 8.0 50.0 5.08 1.09 0.00 61 1000.0
20260507162451 64 303 4.0 50.0 5.12 1.10 0.00 61 1000.0
20260507161651 64 256 7.0 50.0 5.20 1.12 0.00 60 1000.0
20260507161251 66 280 6.0 50.0 5.28 1.14 0.00 60 999.9
20260507160851 66 245 8.0 50.0 5.31 1.15 0.00 60 999.9
20260507160451 66 228 11.0 50.0 5.35 1.15 0.00 59 999.9
20260507160051 66 268 7.0 50.0 5.43 1.15 0.00 59 999.9
20260507155650 66 256 4.0 50.0 5.43 1.15 0.00 58 999.9
20260507155251 66 263 5.0 50.0 5.39 1.15 0.00 58 1000.0
20260507154851 66 246 5.0 50.0 5.35 1.15 0.00 58 1000.0
20260507154451 66 245 4.0 50.0 5.35 1.16 0.00 58 1000.0
20260507154051 66 224 5.0 50.0 5.43 1.16 0.00 57 999.9
20260507153651 66 224 5.0 50.0 5.43 1.17 0.00 57 999.9
20260507153250 68 224 3.0 50.0 5.43 1.17 0.00 57 999.9
20260507152850 68 206 6.0 50.0 5.43 1.18 0.00 57 999.9
20260507152451 68 234 4.0 50.0 5.43 1.18 0.00 56 1000.0
20260507152051 68 246 6.0 50.0 5.43 1.18 0.00 56 1000.0
20260507151651 68 228 8.0 50.0 5.43 1.18 0.00 56 1000.0
20260507151251 68 222 7.0 50.0 5.43 1.18 0.00 56 1000.0
20260507150851 68 222 8.0 50.0 5.43 1.18 0.00 55 999.9
20260507150451 68 201 6.0 50.0 5.43 1.19 0.00 55 999.9
20260507150051 68 224 7.0 50.0 5.43 1.20 0.00 55 999.9
20260507145651 68 245 6.0 50.0 5.43 1.21 0.00 55 1000.0
20260507145251 70 207 6.0 50.0 5.43 1.22 0.00 55 999.9
20260507144851 70 239 7.0 50.0 5.43 1.23 0.00 55 999.9
20260507144451 70 211 5.0 50.0 5.43 1.24 0.00 54 999.9
20260507144050 70 213 7.0 50.0 5.43 1.25 0.00 54 1000.0
20260507143650 72 211 10.0 50.0 5.43 1.26 0.00 54 1000.0
20260507143251 70 201 9.0 50.0 5.43 1.24 0.00 54 1000.0
20260507142850 72 211 11.0 50.0 5.43 1.25 0.00 54 1000.1
20260507142451 72 224 12.0 50.0 5.43 1.26 0.00 54 1000.1
20260507142050 72 217 10.0 50.0 5.43 1.26 0.00 55 1000.1
20260507141650 72 207 8.0 50.0 5.43 1.26 0.00 54 1000.0
20260507141250 70 189 10.0 50.0 5.43 1.23 0.00 55 1000.0
20260507140850 72 206 6.0 50.0 5.43 1.24 0.00 55 1000.0
20260507140450 70 211 14.0 50.0 5.43 1.25 0.00 55 1000.0
20260507140050 72 194 13.0 50.0 5.43 1.26 0.00 55 1000.1
20260507135650 72 194 10.0 50.0 5.43 1.28 0.00 56 1000.0
20260507135250 72 172 11.0 50.0 5.43 1.31 0.00 56 1000.1
20260507134850 73 184 9.0 50.0 5.43 1.29 0.00 56 1000.0
20260507134450 72 189 3.0 50.0 5.43 1.25 0.00 57 1000.0
20260507134050 70 190 7.0 50.0 5.43 1.24 0.00 57 1000.0
20260507133651 70 241 7.0 50.0 5.43 1.21 0.00 57 1000.0
20260507133250 68 269 6.0 50.0 5.43 1.19 0.00 57 1000.0
20260507132850 68 234 9.0 50.0 5.43 1.18 0.00 58 1000.0
20260507132450 66 252 15.0 50.0 5.43 1.13 0.00 57 1000.0
20260507132050 64 239 10.0 50.0 5.43 1.09 0.00 56 1000.0
20260507131650 64 239 16.0 50.0 5.43 1.13 0.00 54 1000.0
20260507131250 64 245 18.0 50.0 5.43 1.14 0.00 52 1000.0
20260507130850 68 211 19.0 50.0 5.43 1.19 0.00 49 999.9
20260507130450 68 235 13.0 50.0 5.43 1.21 0.00 48 999.8
20260507130050 70 207 21.0 50.0 5.43 1.24 0.00 47 999.8
20260507125650 72 194 16.0 50.0 5.43 1.28 0.00 46 999.6
20260507125250 72 213 19.0 50.0 5.43 1.30 0.00 46 999.5
20260507124850 73 168 12.0 50.0 5.43 1.32 0.00 46 999.4
20260507124450 73 190 13.0 50.0 5.43 1.35 0.00 46 999.4
20260507124050 73 189 14.0 50.0 5.43 1.34 0.00 46 999.4
20260507123650 75 183 11.0 50.0 5.43 1.37 0.00 46 999.4
20260507122450 77 155 13.0 50.0 5.43 1.46 0.00 47 999.5
20260507122050 81 190 13.0 50.0 5.43 1.46 0.00 48 999.5
20260507121650 82 177 16.0 50.0 5.43 1.50 0.00 48 999.5
20260507121250 82 184 10.0 50.0 5.43 1.46 0.00 47 999.5
20260507120850 79 189 16.0 50.0 5.43 1.41 0.00 47 999.5
20260507120450 77 189 19.0 50.0 5.43 1.38 0.00 47 999.5
20260507120050 75 183 12.0 50.0 5.43 1.37 0.00 47 999.5
20260507115650 75 200 18.0 50.0 5.43 1.34 0.00 48 999.4
20260507115250 75 196 12.0 50.0 5.43 1.35 0.00 49 999.4
20260507114850 77 173 13.0 50.0 5.43 1.37 0.00 49 999.5
20260507114050 81 190 12.0 50.0 5.43 1.48 0.00 49 999.5
20260507113650 81 222 13.0 50.0 5.43 1.40 0.00 49 999.5
20260507113250 75 110 16.0 50.0 5.43 1.41 0.00 50 999.5
20260507112850 81 183 11.0 50.0 5.43 1.39 0.00 50 999.5
20260507112450 75 183 12.0 50.0 5.43 1.41 0.00 51 999.5
20260507112050 79 168 15.0 50.0 5.43 1.41 0.00 51 999.5
20260507111650 82 258 14.0 50.0 5.43 1.42 0.00 51 999.5
20260507111250 81 168 7.0 50.0 5.43 1.48 0.00 51 999.5
20260507110850 79 166 8.0 50.0 5.43 1.43 0.00 50 999.5
20260507110450 77 190 15.0 50.0 5.43 1.36 0.00 51 999.5
20260507110050 81 211 14.0 50.0 5.43 1.40 0.00 51 999.5
20260507105650 81 196 12.0 50.0 5.43 1.42 0.00 51 999.5
20260507105250 81 172 17.0 50.0 5.43 1.46 0.00 51 999.5
20260507104450 75 166 17.0 50.0 5.43 1.41 0.00 52 999.6
20260507104050 77 207 9.0 50.0 5.43 1.40 0.00 52 999.6
20260507103650 79 239 19.0 50.0 5.43 1.39 0.00 53 999.6
20260507103250 81 179 15.0 50.0 5.43 1.48 0.00 53 999.7
20260507102850 77 33 11.0 50.0 5.43 1.45 0.00 53 999.7
20260507102450 77 256 8.0 50.0 5.43 1.44 0.00 54 999.7
20260507102050 81 121 7.0 50.0 5.43 1.49 0.00 54 999.7
20260507101650 79 183 14.0 50.0 5.43 1.42 0.00 54 999.7
20260507101250 81 156 9.0 50.0 5.43 1.43 0.00 54 999.6
20260507100850 79 166 9.0 50.0 5.43 1.43 0.00 54 999.6
20260507100450 77 194 14.0 50.0 5.43 1.42 0.00 55 999.6
20260507100050 75 179 7.0 50.0 5.43 1.44 0.00 54 999.7
20260507095650 72 132 16.0 50.0 5.43 1.38 0.00 54 999.7
20260507095250 73 161 15.0 50.0 5.43 1.41 0.00 54 999.6
20260507094850 75 183 24.0 50.0 5.43 1.35 0.00 54 999.6
20260507094450 77 134 11.0 50.0 5.43 1.37 0.00 54 999.7
20260507094050 75 183 16.0 50.0 5.43 1.35 0.00 54 999.7
20260507093650 75 144 13.0 50.0 5.43 1.32 0.00 54 999.7
20260507093250 75 162 21.0 50.0 5.43 1.37 0.00 54 999.7
20260507092850 73 166 11.0 50.0 5.43 1.31 0.00 54 999.7
20260507092450 72 144 7.0 50.0 5.43 1.29 0.00 53 999.7
20260507092050 72 72 9.0 50.0 5.43 1.31 0.00 53 999.7
20260507091650 72 149 18.0 50.0 5.43 1.31 0.00 53 999.6
20260507091250 72 145 21.0 50.0 5.43 1.31 0.00 53 999.6
20260507090850 73 189 11.0 50.0 5.43 1.34 0.00 53 999.5
20260507090450 72 149 11.0 50.0 5.43 1.33 0.00 52 999.5
20260507090050 72 151 10.0 50.0 5.43 1.34 0.00 53 999.4
20260507085650 72 139 8.0 50.0 5.43 1.35 0.00 53 999.4
20260507085250 72 139 9.0 50.0 5.43 1.34 0.00 53 999.4
20260507084850 72 145 14.0 50.0 5.43 1.33 0.00 53 999.4
20260507084050 75 179 15.0 50.0 5.43 1.34 0.00 53 999.3
20260507083250 70 168 24.0 50.0 5.43 1.29 0.00 54 999.3
20260507082850 73 190 8.0 50.0 5.43 1.32 0.00 55 999.3
20260507082450 72 177 16.0 50.0 5.43 1.32 0.00 55 999.3
20260507082050 73 196 11.0 50.0 5.43 1.32 0.00 56 999.3
20260507081650 73 151 8.0 50.0 5.43 1.33 0.00 56 999.2
20260507081250 73 156 13.0 50.0 5.43 1.31 0.00 56 999.2
20260507080850 72 162 8.0 50.0 5.43 1.28 0.00 56 999.2
20260507080450 70 173 16.0 50.0 5.43 1.26 0.00 55 999.3
20260507080050 70 206 7.0 50.0 5.43 1.25 0.00 55 999.2
20260507075650 68 177 9.0 50.0 5.43 1.24 0.00 55 999.2
20260507075250 68 162 13.0 50.0 5.43 1.24 0.00 55 999.2
20260507074850 70 177 14.0 50.0 5.43 1.26 0.00 55 999.1
20260507074450 68 196 12.0 50.0 5.43 1.24 0.00 55 999.1
20260507074050 70 183 6.0 50.0 5.43 1.26 0.00 55 999.1
20260507073650 70 161 12.0 50.0 5.43 1.26 0.00 55 999.1
20260507073250 70 127 22.0 50.0 5.43 1.25 0.00 55 999.0
20260507072850 70 189 8.0 50.0 5.43 1.24 0.00 55 999.0
20260507072450 68 156 12.0 50.0 5.43 1.24 0.00 55 999.0
20260507072050 70 117 11.0 50.0 5.43 1.26 0.00 55 999.0
20260507071650 70 179 13.0 50.0 5.43 1.26 0.00 55 998.9
20260507071250 70 179 13.0 50.0 5.43 1.28 0.00 56 998.9
20260507070850 70 151 13.0 50.0 5.43 1.28 0.00 56 998.9
20260507070450 70 155 14.0 50.0 5.43 1.29 0.00 57 998.9
20260507070050 70 200 11.0 50.0 5.43 1.25 0.00 57 998.9
20260507065650 70 168 10.0 50.0 5.43 1.26 0.00 58 998.8
20260507065250 68 156 9.0 50.0 5.43 1.24 0.00 58 998.8
20260507064450 68 155 20.0 50.0 5.43 1.23 0.00 58 998.9
20260507064050 68 145 10.0 50.0 5.43 1.21 0.00 59 998.9
20260507063650 66 151 14.0 50.0 5.43 1.20 0.00 59 998.8
20260507063250 68 177 7.0 50.0 5.43 1.21 0.00 59 998.8
20260507062850 68 151 5.0 50.0 5.43 1.20 0.00 59 998.8
20260507062450 66 138 7.0 50.0 5.43 1.18 0.00 59 998.8
20260507062050 66 139 8.0 50.0 5.43 1.16 0.00 59 998.8
20260507061650 66 183 10.0 50.0 5.43 1.14 0.00 59 998.8
20260507061250 64 183 9.0 50.0 5.43 1.13 0.00 59 998.8
20260507060850 64 149 9.0 50.0 5.43 1.13 0.00 59 998.7
20260507060450 64 117 13.0 50.0 5.43 1.14 0.00 59 998.7
20260507060050 64 200 18.0 50.0 5.43 1.16 0.00 59 998.6
20260507055650 64 156 7.0 50.0 5.43 1.17 0.00 59 998.6
20260507055250 64 149 11.0 50.0 5.43 1.15 0.00 59 998.6